Flag for United Kingdom Weather past 2 weeks in Worcester, England, United Kingdom

Now
60 °F

Smoke.


Feels Like: 60 °F
Forecast: 56 / 72 °F
Wind: 6 mph from Northeast

Location: Pershore

Current Time: Sep 19, 2014 at 7:07:32 AM

Latest Report: Sep 19, 2014 at 6:00 AM


Visibility: 2 mi

Pressure: 29.86 "Hg

Humidity: 94%

Dew point: 58 °F

Location of WorcesterLocation

Historic Weather in Worcester — Graph

°F

Worcester temperature yesterday

Maximum temperature yesterday: 73 °F (at 4:00 PM)
Minimum temperature yesterday: 57 °F (at 12:00 AM)
Average temperature yesterday: 64 °F

Past Weeks' High & Low Weather Summary

 TemperatureHumidityPressure
High73 °F (Sep 18, 4:00 PM)100% (Sep 16, 9:00 AM)30.38 "Hg (Sep 16, 9:00 AM)
Low40 °F (Sep 8, 7:00 AM)45% (Sep 8, 3:00 PM)29.81 "Hg (Sep 18, 4:00 PM)
Average59 °F80%30.10 "Hg
* Reported Sep 4 5:00 AM — Sep 19 5:00 AM, Worcester, Weather by CustomWeather, © 2014

Note: Actual official high and low records may vary slightly from our data, if they occured in-between our weather recording intervals... More about our weather records

Advertising

Worcester weather history for previous 24 hours

 ConditionsComfort  
Time TempWeatherWind HumidityBarometerVisibility
5:00 AM
Sep 19
61 °FCool.3 mph93%29.85 "Hg2 mi
4:00 AM61 °FSmoke.3 mph93%29.86 "Hg2 mi
2:00 AM61 °FSmoke.3 mph93%29.87 "Hg2 mi
1:00 AM61 °FSmoke.5 mph93%29.87 "Hg2 mi
12:00 AM62 °FSmoke.6 mph92%29.86 "Hg2 mi
11:00 PM
Sep 18
63 °FSmoke.7 mph89%29.84 "Hg3 mi
10:00 PM65 °FMild.7 mph87%29.84 "Hg5 mi
9:00 PM65 °FRain. Overcast.7 mph91%29.84 "Hg4 mi
8:00 PM67 °FRain. Overcast.6 mph90%29.84 "Hg3 mi
7:00 PM71 °FMild.3 mph72%29.82 "Hg6 mi
4:00 PM73 °FMild.8 mph65%29.81 "Hg7 mi
3:00 PM72 °FSmoke.7 mph67%29.81 "Hg6 mi
2:00 PM72 °FSmoke.8 mph70%29.82 "Hg5 mi
1:00 PM69 °FSmoke.8 mph75%29.84 "Hg4 mi
12:00 PM66 °FSmoke.7 mph80%29.85 "Hg3 mi
11:00 AM63 °FSmoke.6 mph86%29.87 "Hg3 mi
10:00 AM61 °FSmoke.6 mph88%29.87 "Hg2 mi
9:00 AM60 °FCool.7 mph90%29.86 "Hg2 mi
8:00 AM60 °FSmoke.5 mph91%29.85 "Hg2 mi
7:00 AM59 °FSmoke.6 mph90%29.85 "Hg3 mi
Weather by CustomWeather, © 2014

See weather overviewHow to use our weather pages